Location: Logan
(41.7360°N, 111.8340°W)
Time: 21:38:46
(UTC-06:00)

Daily predictions for brighter satellites

Satellite Brightness Start Highest point End
(mag) Time Altitude Azimuth Time Altitude Azimuth Time Altitude Azimuth
COSMOS 2428 3.8 21:32:33 10° N 21:37:37 32° NE 21:42:40 10° ESE
Cosmos 968 Rocket 4.3 21:34:36 10° SW 21:39:42 57° WNW 21:44:52 10° NNE
SJ-11-01 4.4 21:37:11 10° SSE 21:41:53 89° WSW 21:46:40 10° NNW
Cosmos 304 Rocket 4.0 21:37:56 10° NNW 21:42:42 57° ENE 21:47:25 10° SSE
Cosmos 2219 Rocket 3.9 21:41:17 10° N 21:45:20 20° NE 21:49:22 10° E
ARGOS 4.5 21:41:47 10° ESE 21:46:07 25° ENE 21:50:26 10° N
NOSS 3-1 (A) 4.3 21:42:45 10° SSE 21:47:34 27° ESE 21:52:45 10° NE
Meteor 2-2 Rocket 4.5 21:41:36 10° N 21:47:38 88° E 21:53:40 10° S
Cosmos 1500 Rocket 4.0 21:47:48 10° SSW 21:52:09 68° W 21:56:34 10° N
Cosmos 1437 3.1 21:49:34 10° S 21:52:43 47° E 21:55:54 10° NNE
Cosmos 1726 3.8 21:52:34 10° NNE 21:55:26 20° ENE 21:58:06 11° ESE
Cosmos 1328 4.1 21:52:29 10° SSE 21:56:15 46° E 22:00:04 10° NNE
Envisat 3.1 22:00:41 10° SSE 22:05:45 86° WSW 22:10:53 10° NNW
ERS-1 Rocket 3.8 22:01:50 10° S 22:06:42 50° W 22:11:36 10° NNW
Delta 2 Rocket 3.8 22:03:30 10° WSW 22:06:42 29° S 22:09:00 15° ESE
deb Chang Zheng 4 4.0 22:04:04 10° N 22:08:22 66° WNW 22:12:40 10° SSW
ATLAS 2AS CENTAUR R/B 4.2 22:05:37 11° SE 22:10:16 19° ESE 22:15:24 10° ENE
Cosmos 2219 3.2 22:05:00 10° S 22:10:41 67° ESE 22:16:23 10° NNE
Cosmos 1271 Rocket 4.3 22:10:07 10° NNE 22:13:09 22° ENE 22:15:19 14° ESE
Cosmos 2237 Rocket 3.8 22:12:34 10° N 22:17:06 24° NE 22:21:31 10° ESE
Meteor 1-4 Rocket 4.0 22:14:42 10° NNE 22:17:52 25° ENE 22:19:51 16° ESE
Cosmos 2151 3.1 22:13:54 10° S 22:18:06 78° W 22:22:19 10° N
SL-14 R/B 3.9 22:15:32 14° SSE 22:18:36 39° E 22:22:21 10° NNE
Cosmos 2112 Rocket 4.1 22:13:41 10° NNW 22:18:57 83° WSW 22:23:46 12° SSE
Cosmos 2322 4.1 22:13:49 10° NNW 22:19:29 64° WSW 22:25:00 10° S
Cosmos 2322 Rocket 4.3 22:15:24 10° NW 22:19:33 21° W 22:23:39 10° SSW
ATLAS 3B R/B 4.4 22:18:41 10° NNW 22:24:20 24° NNE 22:29:41 10° E
Terra 3.4 22:22:18 13° ESE 22:25:14 22° ENE 22:28:53 10° NNE
Cosmos 1937 Rocket 4.2 22:21:29 13° SSE 22:25:28 33° E 22:30:06 10° NE
CZ-4 SHROUD 3.6 22:24:12 13° S 22:26:51 60° WSW 22:29:58 10° NNW
Cosmos 2298 Rocket 4.1 22:22:10 10° S 22:27:22 58° ESE 22:32:36 10° NNE
Meteor 1-27 4.3 22:22:40 10° N 22:28:21 70° ENE 22:32:54 16° SSE
Cosmos 2360 Rocket 2.9 22:23:18 10° NNW 22:28:46 51° WSW 22:34:08 10° S
Sich 1 3.3 22:25:43 15° SSE 22:29:13 49° E 22:33:28 10° NNE
SL-16 R/B 4.5 22:27:17 10° WNW 22:31:04 19° W 22:34:51 10° SW
Aureole 3 4.5 22:24:30 10° S 22:31:12 79° W 22:36:30 10° N
MetOp-B 4.2 22:26:17 12° SSE 22:31:17 82° WSW 22:36:41 10° NNW
USA 245 2.2 22:31:03 30° SE 22:32:01 57° ENE 22:34:18 10° N
Cosmos 2058 2.8 22:28:42 10° S 22:32:48 88° WNW 22:36:55 10° N
Cosmos 1633 Rocket 3.3 22:29:42 16° SSE 22:32:59 50° E 22:37:14 10° NNE
NOAA 11 4.4 22:29:08 17° SSE 22:33:15 60° ENE 22:38:38 10° N
NOSS 3-1 (C) 3.3 22:27:56 10° SSW 22:33:46 77° ESE 22:40:16 10° NE
DELTA 2 R/B (1) 4.3 22:30:34 10° W 22:35:39 38° SSW 22:38:52 20° SSE
Cosmos 1626 3.9 22:35:44 16° E 22:36:22 17° E 22:38:52 10° NE
OAO 2 Rocket 4.2 22:34:52 10° SW 22:39:32 31° SSE 22:42:20 19° ESE
SL-23 DEB 4.3 22:41:59 10° WNW 22:46:38 47° SW 22:48:13 27° SSE
SL-08 RB Rocket 3.7 22:44:58 23° SSE 22:47:42 70° ENE 22:52:11 10° N
Tiangong 1 1.0 22:44:50 10° WSW 22:47:53 56° SSE 22:49:20 26° E
Cosmos 1805 Rocket 4.0 22:44:09 10° SSW 22:48:34 63° W 22:52:59 10° N
CZ-4 R/B 3.8 22:43:39 10° NNE 22:48:35 71° ESE 22:52:31 15° S
COSMOS 2455 4.4 22:43:54 10° N 22:48:47 25° NE 22:53:21 11° E
YAOGAN 6 3.2 22:47:15 18° S 22:49:46 52° W 22:53:19 10° NNW
Cosmos 1300 3.1 22:46:36 10° NNW 22:50:24 62° W 22:52:56 20° S
CZ-4B R/B 3.7 22:45:48 10° NNE 22:51:05 81° WNW 22:56:16 10° SSW
H-2A R/B 2.6 22:48:40 22° SE 22:51:48 48° ENE 22:57:00 10° N
Cosmos 2227 Rocket 2.6 22:53:14 22° SSE 22:56:22 41° ESE 23:01:38 10° NE
Meteor 1-11 4.5 22:51:03 10° SSW 22:56:49 73° W 23:02:33 10° N
SPOT 1/Viking Rocket 4.0 23:00:26 18° S 23:04:11 57° W 23:09:17 10° NNW
IGS 5A 3.9 23:05:39 32° SE 23:07:09 47° ENE 23:11:10 10° N
Cosmos 1898 Rocket 3.7 23:03:21 10° SSW 23:08:30 71° WNW 23:13:44 10° NNE
Cosmos 2333 Rocket 2.4 23:04:37 10° NNW 23:10:22 66° ENE 23:13:18 29° SE
SL-16 R/B 3.6 23:05:52 10° N 23:10:42 28° NE 23:13:53 17° E
Cosmos 1666 Rocket 4.4 23:07:02 11° SSW 23:11:10 48° WNW 23:15:29 10° N
Cosmos 220 Rocket 3.9 23:08:18 20° SSW 23:11:18 86° ESE 23:15:46 10° NNE
Cosmos 1241 Rocket 4.4 23:06:43 13° SSW 23:12:08 59° ESE 23:18:17 10° NE
SeaSat 1 4.4 23:09:19 11° E 23:12:29 19° NE 23:15:50 10° N
Cosmos 1455 2.5 23:09:17 10° N 23:13:00 50° E 23:13:51 41° ESE
SAR-Lupe-2 3.9 23:14:58 43° ESE 23:15:41 51° ENE 23:19:11 10° N
COSMOS 2428 3.7 23:16:41 10° NW 23:21:55 39° WSW 23:25:20 20° SSW
Cosmos 2297 Rocket 2.5 23:21:13 32° SSE 23:23:21 47° ESE 23:28:46 10° NE
Nadezhda 1 Rocket 3.9 23:17:33 10° N 23:23:41 85° E 23:26:56 30° S
Cosmos 1470 Rocket 3.4 23:22:50 34° S 23:24:40 88° W 23:29:01 10° N
Cosmos 1933 Rocket 3.5 23:23:56 34° S 23:25:53 89° WNW 23:30:22 10° N
ARGOS 4.0 23:22:33 19° SSW 23:26:04 45° W 23:31:14 10° NNW
Cosmos 2219 Rocket 2.3 23:24:15 10° NNW 23:29:48 68° WSW 23:32:19 33° S
Cosmos 1726 4.1 23:27:39 10° NW 23:30:47 25° W 23:32:47 16° SW
Cosmos 1869 3.3 23:27:01 10° N 23:31:05 70° E 23:31:52 53° SE
Cosmos 1745 Rocket 4.2 23:31:50 18° SSW 23:36:32 67° W 23:42:41 10° N
CZ-4C R/B 4.1 23:35:43 32° SW 23:36:33 37° W 23:39:48 10° NNW
NOSS 3-1 (A) 4.2 23:32:10 10° SW 23:37:59 53° NW 23:44:28 10° NNE
Cosmos 2221 Rocket 4.4 23:34:47 10° N 23:39:04 38° ENE 23:39:53 35° ESE
ERBS 2.3 23:38:38 58° SW 23:39:15 86° NW 23:42:45 10° NE
DMSP B5D2-2 4.0 23:34:27 10° NNE 23:39:43 86° WNW 23:42:19 31° SSW
Cosmos 1709 Rocket 4.0 23:42:20 37° SSE 23:44:45 65° E 23:50:47 10° NNE
NOSS 0 Rocket 4.2 23:40:42 10° NNW 23:46:44 59° WSW 23:49:19 34° S
Cosmos 1980 3.8 23:43:24 10° NNW 23:49:00 66° WSW 23:51:01 39° S
Cosmos 1346 4.3 23:49:27 35° W 23:49:42 36° WNW 23:52:33 10° N
Spot 2 4.5 23:46:58 10° N 23:52:05 77° WNW 23:54:11 35° SSW
